CW5193 New Chelsea NF CA current weather conditions

sailwx.info

Wind from 013 at 3 knots gusting 8

Air temperature 11.7° C
Dewpoint 8.5° C

Last reported at 2014-Oct-01 15:43 UTC.
Time now 2014-Oct-01 16:20 UTC

Location: N 48°02' W 053°13'.
View on Google Maps.

See reports from other nearby stations

  
Tides and Currents Weather Stations Pressure Air Temp Water Temp Dewpoint Dewpoint Depression Visibility Wind Speed Wind Dir Waves Ship Positions
date/time (UTC)wind fromknots sea level pressurealtimeterstation pressurevisibilityair tempwater tempwave heightnotes
2014-Oct-01 15:43 013 3 gusting 8 11.7
2014-Oct-01 15:33 054 4 gusting 8 11.1
2014-Oct-01 15:23 038 8 gusting 11 11.1
2014-Oct-01 15:13 040 8 gusting 9 11.1
2014-Oct-01 15:03 053 6 gusting 9 11.7
2014-Oct-01 14:53 347 3 gusting 6 11.1
2014-Oct-01 14:43 030 5 gusting 7 11.1
2014-Oct-01 14:33 057 3 gusting 6 11.1
2014-Oct-01 14:23 046 4 gusting 8 11.1
2014-Oct-01 14:13 011 3 gusting 11 11.1
2014-Oct-01 14:03 028 4 gusting 8 11.1
2014-Oct-01 13:53 009 3 gusting 6 11.1
2014-Oct-01 13:43 042 0 gusting 9 11.1
2014-Oct-01 13:33 034 2 gusting 8 11.1
2014-Oct-01 13:23 024 4 gusting 7 11.1
2014-Oct-01 13:13 040 6 gusting 9 11.1
2014-Oct-01 13:03 349 3 gusting 6 11.1
2014-Oct-01 12:53 321 3 gusting 10 11.1
2014-Oct-01 12:43 360 1 gusting 10 11.7
2014-Oct-01 12:33 323 4 gusting 10 11.1
2014-Oct-01 12:23 355 5 gusting 10 11.1
2014-Oct-01 12:13 309 6 gusting 11 11.1
2014-Oct-01 12:03 040 6 gusting 12 10.6
2014-Oct-01 11:53 059 10.6
2014-Oct-01 11:43 017 0 gusting 7 10.0
2014-Oct-01 11:33 026 10.6
2014-Oct-01 11:23 227 1 gusting 5 10.6
2014-Oct-01 11:13 318 5 gusting 8 10.6
2014-Oct-01 11:03 236 1 gusting 6 10.6
2014-Oct-01 10:53 238 10.6
2014-Oct-01 10:43 235 1 gusting 5 10.0
2014-Oct-01 10:33 246 2 gusting 5 9.4
2014-Oct-01 10:23 226 0 gusting 4 9.4
2014-Oct-01 10:13 226 0 gusting 3 8.9
2014-Oct-01 10:03 252 2 gusting 3 8.9
2014-Oct-01 09:53 252 1 gusting 6 8.9
2014-Oct-01 09:43 252 3 gusting 6 8.9
2014-Oct-01 09:33 243 4 gusting 6 8.9
2014-Oct-01 09:23 232 2 gusting 6 8.9
2014-Oct-01 09:13 236 2 gusting 5 8.9
2014-Oct-01 09:03 238 2 gusting 6 8.9
2014-Oct-01 08:53 225 2 gusting 5 8.9
2014-Oct-01 08:43 225 3 gusting 8 8.9
2014-Oct-01 08:33 242 5 gusting 8 8.9
2014-Oct-01 08:23 243 3 gusting 9 8.9
2014-Oct-01 08:13 246 2 gusting 6 8.9
2014-Oct-01 08:03 267 4 gusting 6 8.9
2014-Oct-01 07:53 263 2 gusting 6 8.9
2014-Oct-01 07:43 234 3 gusting 5 8.9
2014-Oct-01 07:33 245 1 gusting 5 8.9
2014-Oct-01 07:23 242 2 gusting 4 8.9
2014-Oct-01 07:13 241 3 gusting 5 8.9
2014-Oct-01 07:03 240 2 gusting 5 8.9
2014-Oct-01 06:53 247 5 gusting 7 8.9
2014-Oct-01 06:43 231 2 gusting 5 9.4
2014-Oct-01 06:33 281 1 gusting 3 9.4
2014-Oct-01 06:23 280 0 gusting 3 9.4
2014-Oct-01 06:13 017 0 gusting 3 9.4
2014-Oct-01 06:03 017 9.4
2014-Oct-01 05:53 017 0 gusting 3 9.4
2014-Oct-01 05:43 017 9.4
2014-Oct-01 05:33 017 9.4
2014-Oct-01 05:23 017 1 gusting 5 9.4
2014-Oct-01 05:13 021 2 gusting 4 9.4
2014-Oct-01 05:03 019 2 gusting 4 9.4
2014-Oct-01 04:53 029 9.4
2014-Oct-01 04:43 029 0 gusting 1 9.4
2014-Oct-01 04:33 029 9.4
2014-Oct-01 04:23 029 9.4
2014-Oct-01 04:13 029 9.4
2014-Oct-01 04:03 029 9.4
2014-Oct-01 03:53 029 9.4
2014-Oct-01 03:43 029 9.4
2014-Oct-01 03:33 029 9.4
2014-Oct-01 03:23 029 9.4
2014-Oct-01 03:13 029 9.4
2014-Oct-01 03:03 029 9.4
2014-Oct-01 02:53 029 9.4
2014-Oct-01 02:43 029 9.4
2014-Oct-01 02:33 029 9.4
2014-Oct-01 02:23 029 9.4
2014-Oct-01 02:13 029 9.4
2014-Oct-01 02:03 029 9.4
2014-Oct-01 01:53 029 9.4
2014-Oct-01 01:43 030 9.4
2014-Oct-01 01:33 030 9.4
2014-Oct-01 01:23 030 9.4
2014-Oct-01 01:13 030 9.4
2014-Oct-01 01:03 029 9.4
2014-Oct-01 00:53 030 9.4
2014-Oct-01 00:43 029 1 gusting 4 9.4
2014-Oct-01 00:33 237 0 gusting 3 9.4
2014-Oct-01 00:23 236 9.4
2014-Oct-01 00:13 236 9.4
2014-Oct-01 00:03 236 9.4
2014-Sep-30 23:53 236 9.4
2014-Sep-30 23:43 236 9.4
2014-Sep-30 23:33 236 10.0
2014-Sep-30 23:23 236 10.0
2014-Sep-30 23:13 236 10.0
2014-Sep-30 23:03 236 10.0
2014-Sep-30 22:53 235 1 gusting 5 10.0
2014-Sep-30 22:43 183 2 gusting 4 10.0
2014-Sep-30 22:33 211 0 gusting 4 9.4
2014-Sep-30 22:23 210 1 gusting 3 9.4
2014-Sep-30 22:13 210 9.4
2014-Sep-30 22:03 210 9.4
2014-Sep-30 21:53 211 9.4
2014-Sep-30 21:43 211 9.4
2014-Sep-30 21:33 211 9.4
2014-Sep-30 21:23 211 10.0
2014-Sep-30 21:13 210 0 gusting 3 10.0
2014-Sep-30 21:03 211 1 gusting 3 10.0
2014-Sep-30 20:53 211 10.0
2014-Sep-30 20:43 209 0 gusting 5 10.0
2014-Sep-30 20:33 210 3 gusting 6 10.0
2014-Sep-30 20:23 196 1 gusting 4 10.0
2014-Sep-30 20:13 206 1 gusting 6 10.0
2014-Sep-30 20:03 206 2 gusting 5 10.0
2014-Sep-30 19:53 201 3 gusting 7 10.0
2014-Sep-30 19:43 219 3 gusting 8 10.0
2014-Sep-30 19:33 211 4 gusting 7 10.0
2014-Sep-30 19:23 219 5 gusting 8 10.0
2014-Sep-30 19:13 173 4 gusting 7 10.0
2014-Sep-30 19:03 204 4 gusting 8 10.0
2014-Sep-30 18:53 190 5 gusting 10 10.0
2014-Sep-30 18:43 221 4 gusting 10 10.0
2014-Sep-30 18:33 186 5 gusting 9 10.0
2014-Sep-30 18:23 212 5 gusting 13 10.0
2014-Sep-30 18:13 192 7 gusting 13 10.0
2014-Sep-30 18:03 194 6 gusting 10 10.0
2014-Sep-30 17:53 191 6 gusting 13 10.0
2014-Sep-30 17:43 183 7 gusting 14 10.0
2014-Sep-30 17:33 210 9 gusting 14 10.0
2014-Sep-30 17:23 196 7 gusting 14 9.4
2014-Sep-30 17:13 222 9 gusting 14 9.4
2014-Sep-30 17:03 173 10 gusting 13 9.4
2014-Sep-30 16:53 205 7 gusting 15 9.4
2014-Sep-30 16:43 209 7 gusting 12 9.4
2014-Sep-30 16:33 218 9 gusting 13 8.9
2014-Sep-30 16:23 209 8 gusting 13 8.9
2014-Sep-30 16:13 215 8 gusting 12 8.3
2014-Sep-30 16:03 189 8 gusting 12 8.3
2014-Sep-30 15:53 196 7 gusting 13 8.3
2014-Sep-30 15:43 198 6 gusting 15 8.3
2014-Sep-30 15:33 204 7 gusting 13 8.3
2014-Sep-30 15:23 184 2 gusting 12 8.9
2014-Sep-30 15:13 196 7 gusting 15 8.3
2014-Sep-30 15:03 164 6 gusting 13 8.9
2014-Sep-30 14:53 159 12 gusting 15 8.3
2014-Sep-30 14:43 206 8 gusting 14 8.3
2014-Sep-30 14:33 202 7 gusting 17 7.8
2014-Sep-30 14:23 219 10 gusting 14 7.8
2014-Sep-30 14:13 168 6 gusting 12 7.8
2014-Sep-30 14:03 184 8 gusting 13 7.8
2014-Sep-30 13:53 169 6 gusting 11 7.8
2014-Sep-30 13:43 175 6 gusting 10 7.8
2014-Sep-30 13:33 184 4 gusting 8 7.2
2014-Sep-30 13:23 207 6 gusting 9 7.2
2014-Sep-30 13:13 210 4 gusting 10 7.2
2014-Sep-30 13:03 196 3 gusting 6 7.2
2014-Sep-30 12:53 187 3 gusting 9 7.2
2014-Sep-30 12:43 204 4 gusting 10 7.2
2014-Sep-30 12:33 193 1 gusting 4 6.7
2014-Sep-30 12:23 192 6.1
2014-Sep-30 12:13 192 6.1
2014-Sep-30 12:03 192 5.6
2014-Sep-30 11:53 192 0 gusting 3 5.0
2014-Sep-30 11:43 192 2 gusting 4 4.4
2014-Sep-30 11:33 192 1 gusting 2 4.4
2014-Sep-30 11:23 192 0 gusting 2 4.4
2014-Sep-30 11:13 192 2 gusting 3 3.9
2014-Sep-30 11:03 192 0 gusting 2 3.9
2014-Sep-30 10:53 192 1 gusting 2 3.3
2014-Sep-30 10:43 192 1 gusting 4 3.3
2014-Sep-30 10:33 192 2 gusting 4 3.3
2014-Sep-30 10:23 192 1 gusting 3 3.3
2014-Sep-30 10:13 192 1 gusting 2 3.3
2014-Sep-30 10:03 192 2.8
2014-Sep-30 09:53 192 2 gusting 3 2.8
2014-Sep-30 09:43 192 1 gusting 4 2.8
2014-Sep-30 09:33 192 3 gusting 4 2.8
2014-Sep-30 09:23 192 1 gusting 3 2.8
2014-Sep-30 09:13 192 1 gusting 2 2.8
2014-Sep-30 09:03 192 0 gusting 3 3.3
2014-Sep-30 08:53 192 1 gusting 4 3.3
2014-Sep-30 08:43 192 2 gusting 3 2.8
2014-Sep-30 08:33 192 1 gusting 3 2.2
2014-Sep-30 08:23 192 2 gusting 4 2.8
2014-Sep-30 08:13 192 2 gusting 3 2.8
2014-Sep-30 08:03 192 1 gusting 4 2.8
2014-Sep-30 07:53 192 2 gusting 3 2.2
2014-Sep-30 07:43 192 2 gusting 4 2.2
2014-Sep-30 07:33 192 2 gusting 4 1.7
2014-Sep-30 07:23 193 3 gusting 4 1.7
2014-Sep-30 07:13 192 3 gusting 4 2.2
2014-Sep-30 07:03 192 0 gusting 2 2.8
2014-Sep-30 06:53 192 2 gusting 3 2.8
2014-Sep-30 06:43 192 1 gusting 3 3.3
2014-Sep-30 06:33 192 1 gusting 4 3.3
2014-Sep-30 06:23 192 3 gusting 4 2.8
2014-Sep-30 06:13 192 1 gusting 3 2.2
2014-Sep-30 06:03 192 0 gusting 3 2.8
2014-Sep-30 05:53 192 2 gusting 5 2.2
2014-Sep-30 04:43 178 3 gusting 4 1.1
2014-Sep-30 04:34 178 2 gusting 3 1.1
2014-Sep-30 04:23 178 3 gusting 4 1.1
2014-Sep-30 04:13 178 2 gusting 4 1.1
2014-Sep-30 04:03 178 1 gusting 4 1.7
2014-Sep-30 03:53 178 3 gusting 4 1.7
2014-Sep-30 03:43 178 2 gusting 5 1.7
2014-Sep-30 03:33 178 1 gusting 5 2.2
2014-Sep-30 03:23 178 2 gusting 5 2.2
2014-Sep-30 03:13 144 2 gusting 4 2.8
2014-Sep-30 03:03 144 4 gusting 5 3.3
2014-Sep-30 02:53 045 3.9
2014-Sep-30 02:43 046 5.0
2014-Sep-30 02:33 046 2 gusting 5 5.6
2014-Sep-30 02:23 036 2 gusting 4 5.6
2014-Sep-30 02:13 036 3 gusting 5 5.6
2014-Sep-30 02:03 046 4 gusting 7 5.6
2014-Sep-30 01:53 036 3 gusting 5 5.6
2014-Sep-30 01:43 026 3 gusting 7 5.6
2014-Sep-30 01:33 005 4 gusting 8 5.6
2014-Sep-30 01:23 040 2 gusting 8 6.1
2014-Sep-30 01:13 039 4 gusting 11 6.1
2014-Sep-30 01:03 037 9 gusting 13 6.1
2014-Sep-30 00:53 034 9 gusting 11 6.1
2014-Sep-30 00:43 052 5 gusting 9 6.1
2014-Sep-30 00:33 015 6 gusting 13 6.1
2014-Sep-30 00:23 030 9 gusting 13 6.7
2014-Sep-30 00:13 029 8 gusting 13 6.7
2014-Sep-30 00:03 040 6 gusting 12 6.7
2014-Sep-29 23:53 013 8 gusting 13 6.7
2014-Sep-29 23:43 042 9 gusting 13 6.7
2014-Sep-29 23:33 030 6 gusting 13 6.7
2014-Sep-29 23:23 041 10 gusting 13 6.7
2014-Sep-29 23:13 020 7 gusting 13 6.7
2014-Sep-29 23:03 049 10 gusting 15 7.2
2014-Sep-29 22:53 360 8 gusting 15 7.2
2014-Sep-29 22:33 048 8 gusting 13 7.2
2014-Sep-29 22:23 036 9 gusting 17 7.2
2014-Sep-29 22:13 040 9 gusting 13 7.2
2014-Sep-29 22:03 037 8 gusting 13 7.2
2014-Sep-29 21:53 040 9 gusting 13 7.2
2014-Sep-29 21:43 041 4 gusting 12 7.2
2014-Sep-29 21:33 034 6 gusting 13 7.2
2014-Sep-29 21:23 016 4 gusting 15 7.8
2014-Sep-29 21:13 041 8 gusting 11 7.8
2014-Sep-29 21:03 042 5 gusting 11 7.2
2014-Sep-29 20:53 010 5 gusting 10 7.8
2014-Sep-29 20:43 018 4 gusting 12 7.8
2014-Sep-29 20:33 041 6 gusting 13 7.8
2014-Sep-29 20:23 033 10 gusting 13 7.8
2014-Sep-29 20:13 023 6 gusting 14 7.8
2014-Sep-29 20:03 021 6 gusting 13 7.8
2014-Sep-29 19:53 044 8 gusting 11 7.8
2014-Sep-29 19:43 015 4 gusting 8 7.8
2014-Sep-29 19:33 355 6 gusting 11 7.8
2014-Sep-29 19:23 046 9 gusting 13 7.8
2014-Sep-29 19:14 040 6 gusting 12 7.8
2014-Sep-29 19:03 044 7 gusting 13 8.3
2014-Sep-29 18:54 053 7 gusting 15 8.3
2014-Sep-29 18:43 020 13 gusting 15 8.3
2014-Sep-29 18:33 038 10 gusting 13 8.3
2014-Sep-29 18:24 026 11 gusting 14 8.3
2014-Sep-29 18:13 057 6 gusting 13 8.3
2014-Sep-29 18:03 024 7 gusting 15 8.3
2014-Sep-29 17:53 021 10 gusting 13 8.3
2014-Sep-29 17:43 063 6 gusting 13 8.3
2014-Sep-29 17:33 071 10 gusting 12 8.3
2014-Sep-29 17:23 017 6 gusting 11 8.3
2014-Sep-29 17:13 061 8 gusting 10 7.8
2014-Sep-29 17:03 059 5 gusting 9 7.8
2014-Sep-29 16:53 038 5 gusting 11 7.8
2014-Sep-29 16:43 046 7 gusting 13 7.8
2014-Sep-29 16:33 064 8 gusting 11 7.8
2014-Sep-29 16:23 057 9 gusting 12 7.8
2014-Sep-29 16:13 048 9 gusting 13 7.8
2014-Sep-29 16:03 064 10 gusting 14 7.8